• Processing (Info)

  • MPEC 2013-T99 : 2013 TV132

    The following Minor Planet Electronic Circular may be linked-to from your own Web pages, but must not otherwise be redistributed electronically.

    A form allowing access to any MPEC is at the bottom of this page.


    Read MPEC 2013-T98 Read MPEC 2013-T100


    M.P.E.C. 2013-T99                                Issued 2013 Oct. 13, 14:57 UT
    
         The Minor Planet Electronic Circulars contain information on unusual
             minor planets and routine data on comets.  They are published
       on behalf of Commission 20 of the International Astronomical Union by the
              Minor Planet Center, Smithsonian Astrophysical Observatory,
                              Cambridge, MA 02138, U.S.A.
    
                 Prepared using the Tamkin Foundation Computer Network
    
                                  MPC@CFA.HARVARD.EDU
                URL http://www.minorplanetcenter.net/    ISSN 1523-6714
    
                                      2013 TV132
    
    Observations:
         K13TD2V* C2013 10 12.39906 01 33 56.71 +04 29 07.1          20.5 VqET099G96
         K13TD2V  C2013 10 12.40613 01 34 02.02 +04 29 32.5          20.5 VqET099G96
         K13TD2V  C2013 10 12.41317 01 34 07.34 +04 29 58.5          19.8 VqET099G96
         K13TD2V  C2013 10 12.42020 01 34 12.61 +04 30 23.7          20.1 VqET099G96
         K13TD2V  C2013 10 12.45646 01 34 40.15 +04 32 33.3                qET099G96
         K13TD2V  C2013 10 12.45713 01 34 40.59 +04 32 36.4          20.7 VqET099G96
         K13TD2V  C2013 10 12.45781 01 34 41.14 +04 32 39.3          21.3 VqET099G96
         K13TD2V  C2013 10 12.45847 01 34 41.54 +04 32 40.6                qET099G96
         K13TD2V  C2013 10 13.17924 01 43 53.04 +05 12 56.7          20.1 VqET099G96
         K13TD2V  C2013 10 13.17991 01 43 53.54 +05 13 00.0          20.9 VqET099G96
         K13TD2V  C2013 10 13.18057 01 43 53.89 +05 13 01.5          19.9 VqET099G96
         K13TD2V  C2013 10 13.18124 01 43 54.31 +05 13 04.2          20.7 VqET099G96
         K13TD2V  C2013 10 13.21323 01 44 14.72 +05 14 44.0          20.9 VqET099G96
         K13TD2V  C2013 10 13.21389 01 44 15.37 +05 14 46.5          20.6 VqET099G96
         K13TD2V  C2013 10 13.21456 01 44 15.64 +05 14 48.2          20.3 VqET099G96
         K13TD2V  C2013 10 13.21523 01 44 16.04 +05 14 50.5          20.3 VqET099G96
         K13TD2V  C2013 10 13.43279 01 46 28.62 +05 25 41.2          20.3 VqET099G96
         K13TD2V  C2013 10 13.43346 01 46 29.05 +05 25 43.1          20.0 VqET099G96
         K13TD2V  C2013 10 13.43417 01 46 29.45 +05 25 45.0          20.2 VqET099G96
         K13TD2V  C2013 10 13.43485 01 46 29.89 +05 25 47.3          20.5 VqET099G96
    
    Observer details:
    G96 Mt. Lemmon Survey.  Observer A. Boattini.  Measurers A. Boattini,
        E. J. Christensen, A. R. Gibbs, A. D. Grauer, R. E. Hill, J. A. Johnson,
        R. A. Kowalski, S. M. Larson, F. C. Shelly.  1.5-m reflector + CCD.
    
    Orbital elements:
    2013 TV132                                               Earth MOID = 0.0032 AU
    Epoch 2013 Nov. 4.0 TT = JDT 2456600.5                  MPC
    M  15.19754              (2000.0)            P               Q
    n   0.29707535     Peri.  151.93673     +0.96279060     +0.27016468
    a   2.2244619      Node   192.39474     -0.25344660     +0.89400680
    e   0.5615535      Incl.    1.79698     -0.09380342     +0.35743934
    P   3.32           H   26.4           G   0.15           U   8
    Residuals in seconds of arc
    131012 G96  0.1-  0.3+    131012 G96  0.9-  0.5-    131013 G96  0.2+  0.2-
    131012 G96  0.3-  0.1-    131013 G96  0.4-  0.9-    131013 G96  0.2-  0.0
    131012 G96  0.0   0.4+    131013 G96  0.6+  0.3+    131013 G96  0.2-  0.2+
    131012 G96  0.5-  0.1+    131013 G96  0.5-  0.3-    131013 G96  0.1+  0.2+
    131012 G96  1.1+  0.6-    131013 G96  0.7-  0.3+    131013 G96  0.3-  0.1+
    131012 G96  0.1+  0.1+    131013 G96  1.0-  0.3-    131013 G96  0.1+  0.4+
    131012 G96  0.6+  0.6+    131013 G96  2.4+  0.2+
    
    Ephemeris:
    2013 TV132               a,e,i = 2.22, 0.56, 2                   q = 0.9753
    Date    TT    R. A. (2000) Decl.     Delta      r     Elong.  Phase     V
    2013 09 13    16 05 32.8 -13 50 17   0.1245  0.9750    72.0   101.0    25.5
    ...
    2013 09 28    17 24 56.3 -16 26 08   0.04685 0.9924    76.8   100.6    23.4
    ...
    2013 10 06    22 12 15.4 -10 17 44   0.02238 1.0167   138.6    40.6    19.8
    ...
    2013 10 12    01 28 23.1 +04 04 59   0.04308 1.0409   174.2     5.6    20.1
    2013 10 13    01 41 39.1 +05 04 59   0.04807 1.0454   172.3     7.3    20.4
    2013 10 14    01 52 24.4 +05 52 57   0.05322 1.0500   170.8     8.8    20.7
    ...
    2013 10 20    02 28 25.3 +08 29 46   0.08626 1.0802   167.6    11.4    21.9
    ...
    2013 10 28    02 46 18.5 +09 51 29   0.1341  1.1261   170.3     8.5    22.9
    ...
    2013 11 12    02 56 36.2 +11 03 42   0.2370  1.2253   172.8     5.8    24.2
    
    A. U. Tomatic                (C) Copyright 2013 MPC           M.P.E.C. 2013-T99
    

    Read MPEC 2013-T98 Read MPEC 2013-T100


    MPEC number:

    Enter an MPEC number in one of the following forms:

    • 1997-B01 (the full form)
    • J97B01 (the packed version of the full form)
    • B01 (the abbreviated form)